Regional Weather Roundup
Issued by NWS

Home | Current Version | Previous Version | Text Only | Print | Product List | Glossary Off
Versions: 1 2 3 4 5 6 7 8 9 10 11 12 13 14 15 16 17 18 19 20 21 22 23 24 25 26 27 28 29 30 31 32 33 34 35 36 37 38 39 40 41 42 43 44 45 46 47 48 49 50

000
ASUS43 KMKX 280200
RWRWI

WISCONSIN REGIONAL WEATHER ROUNDUP
NATIONAL WEATHER SERVICE MILWAUKEE/SULLIVAN WI
900 PM CDT THU APR 27 2017

NOTE: "FAIR" INDICATES FEW OR NO CLOUDS BELOW 12,000 FEET WITH NO
SIGNIFICANT WEATHER AND/OR OBSTRUCTIONS TO VISIBILITY.

WIZ001-002-006>008-014>016-023>028-280300-
NORTHWEST WISCONSIN

CITY           SKY/WX    TMP DP  RH WIND       PRES   REMARKS
SUPERIOR ARPT  CLOUDY    31  22  70 W12G17    29.65R WCI  22
ASHLAND        CLOUDY    29  24  82 SW8       29.64R WCI  21
HAYWARD        CLOUDY    29  22  75 W6        29.66R WCI  23
SIREN          CLOUDY    30  26  84 W8        29.69R WCI  22
CUMBERLAND     CLOUDY    30  23  74 W12       29.68R WCI  21
RICE LAKE      CLOUDY    31  25  79 W7G18     29.69R WCI  24
CHETEK         CLOUDY    31  24  75 W7        29.69R WCI  24
LADYSMITH      CLOUDY    31  26  78 W8        29.67R WCI  24
EAU CLAIRE     NOT AVBL
MENOMONIE      CLOUDY    33  25  71 W12       29.71R WCI  24
NEW RICHMOND   CLOUDY    31  24  72 W7        29.71R WCI  25
OSCEOLA        CLOUDY    32  25  76 W7        29.74R WCI  26
$$

WIZ003>005-009-010-017-018-280300-
NORTH CENTRAL WISCONSIN

CITY           SKY/WX    TMP DP  RH WIND       PRES   REMARKS
MANITOWISH WTR LGT SNOW  26  26  99 W7        29.60R WCI  19
ARBOR VITAE    CLOUDY    29  27  90 W9        29.60R FOG     WCI  21
WOODRUFF       CLOUDY    29  27  90 W9        29.60R FOG     WCI  21
RHINELANDER    MIX PCPN  30  27  88 W13       29.62R FOG     WCI  20
EAGLE RIVER    CLOUDY    28  24  84 W9        29.59R WCI  19
LAND O LAKES   CLOUDY    28  25  86 W9        29.59R WCI  20
PHILLIPS       CLOUDY    27  26  96 W5        29.63R WCI  22
TOMAHAWK       CLOUDY    29  25  85 W5        29.64R WCI  24
MEDFORD        CLOUDY    29  28  93 W8        29.65R FOG     WCI  21
MERRILL        CLOUDY    31  28  87 W9        29.65R WCI  23
$$

WIZ029-030-035-036-043>047-280300-
CENTRAL WISCONSIN

CITY           SKY/WX    TMP DP  RH WIND       PRES   REMARKS
WAUSAU         CLOUDY    32  28  85 W12       29.66R WCI  23
MOSINEE        CLOUDY    32  30  93 W10G17    29.68R WCI  24
MARSHFIELD     CLOUDY    33  29  85 W7        29.67R FOG     WCI  27
STEVENS POINT  CLOUDY    33  30  90 W7G17     29.68R WCI  27
WAUPACA        CLOUDY    39  34  81 SW10      29.68R WCI  33
WAUTOMA        CLOUDY    38  34  85 W10       29.71R WCI  31
WISC RAPIDS    CLOUDY    36  32  85 W8        29.70R WCI  30
CAMP DOUGLAS   CLOUDY    36  32  87 W9        29.71R WCI  29
$$

WIZ011>013-019>022-031-037>040-048>050-280300-
NORTHEAST WISCONSIN

CITY           SKY/WX    TMP DP  RH WIND       PRES   REMARKS
ANTIGO         CLOUDY    30  28  92 W13       29.63R WCI  20
SHAWANO        CLOUDY    38  32  79 W10G16    29.66R WCI  31
OCONTO         NOT AVBL
STURGEON BAY   CLOUDY    39  33  79 W9        29.67R WCI  33
GREEN BAY      CLOUDY    41  36  82 SW9       29.67R
MANITOWOC      NOT AVBL
APPLETON       DRIZZLE   37  34  87 W15       29.67R WCI  28
CLINTONVILLE   CLOUDY    36  32  87 W10       29.66R WCI  28
OSHKOSH        CLOUDY    40  35  83 VRB6      29.69R
$$

WIZ032>034-041-042-053>061-280300-
SOUTHWEST WISCONSIN

CITY           SKY/WX    TMP DP  RH WIND       PRES   REMARKS
LA CROSSE      CLOUDY    39  30  70 W13       29.74R WCI  31
SPARTA         CLOUDY    37  32  81 W13       29.72R WCI  29
VIROQUA        CLOUDY    35  33  89 W13       29.71R WCI  27
BOSCOBEL       CLOUDY    41  30  65 SW8       29.76R
PRAIRIE DU CHI CLOUDY    39  29  66 SW7       29.76R WCI  34
PLATTEVILLE    CLOUDY    39  32  77 W10G18    29.77R WCI  32
$$

WIZ056-057-062-063-064-067-068-280300-
SOUTH CENTRAL WISCONSIN

CITY           SKY/WX    TMP DP  RH WIND       PRES   REMARKS
REEDSBURG      CLOUDY    38  33  81 SW7       29.71R WCI  33
BARABOO/DELLS  CLOUDY    37  32  81 W10G17    29.71R WCI  30
LONE ROCK      NOT AVBL
MINERAL POINT  CLOUDY    37  32  81 W14       29.75R WCI  29
MADISON        CLOUDY    40  31  70 W8G18     29.73R WCI  34
MIDDLETON      CLOUDY    41  33  73 SW13      29.73R
WATERTOWN      CLOUDY    40  36  84 SW13G20   29.72R WCI  33
MONROE         CLOUDY    39  32  75 SW17G23   29.75R WCI  30
JANESVILLE     CLOUDY    43  34  70 W9        29.76R
$$

WIZ051-052-058>065-066-070>072-280300-
SOUTHEAST WISCONSIN

CITY           SKY/WX    TMP DP  RH WIND       PRES   REMARKS
MILWAUKEE      CLOUDY    44  34  67 SW10G24   29.75R
WAUKESHA       CLOUDY    39  32  75 SW13      29.74R WCI  32
MILWAUKEE/TIMM CLOUDY    43  32  65 W13G22    29.74R
RACINE         CLOUDY    44  32  62 W17G24    29.77R
KENOSHA        CLOUDY    43  33  68 SW17G26   29.76R
FOND DU LAC    CLOUDY    42  33  70 SW13G20   29.70R
SHEBOYGAN      CLOUDY    42  38  85 W7        29.70R
WEST BEND      CLOUDY    41  36  81 SW13G18   29.70R
JUNEAU         DRIZZLE   39  34  83 SW16      29.72R WCI  30
$$

LSZ147-162-280300-
LAKE SUPERIOR

STATION/POSITION TIME  TEMP    WIND        PRES    WAVE
                       AIR SEA DIR/SP/G            HT/PER
                 (UTC) (F)     (DEG/KT/KT) (MB)    (FT/S)
DEVILS ISLAND    0100   31     280/ 18/ 21 1002.9R
PORT WING        0030   32     290/ 14/ 20 1002.7R
SAXON HARBOR     0030   30     210/  5/  8 1002.7R
$$

LMZ867-665-643>646-280300-
LAKE MICHIGAN

STATION/POSITION TIME  TEMP    WIND        PRES    WAVE
                       AIR SEA DIR/SP/G            HT/PER
                 (UTC) (F)     (DEG/KT/KT) (MB)    (FT/S)
CHAMBERS ISLAND  0040   38     210/  6/ 11 1002.7R
N MID LAKE BUOY  0050   37 37  230/ 16/ 19 1004.0R   4/ 6
NORTHPORT PIER   0040   37      CALM  /  7 1003.4R
KEWAUNEE LAKESHO 0130   42     230/  7/  9 1004.3
SHEBOYGAN LAKESH 0100   42     240/  7/  8 1005.1R
PORT WASHINGTON  0040   45     250/  9/ 17 1006.1R
MILWAUKEE LAKESH 0130   44     260/ 14/ 18   N/A
S MID LAKE BUOY  0050   42 41  270/ 14/ 17 1007.2R   3/ 5
KENOSHA   LAKESH 0100   44     250/ 14/ 18 1007.1
$$

TC  - TEMPERATURE IN CELSIUS
VSB - VISIBILITY IN STATUTE MILES
WCI - WIND CHILL INDEX
HX  - HEAT INDEX




USA.gov is the U.S. government's official web portal to all federal, state and local government web resources and services.